owner,sensor,date,latitude,longitude,vertical_datum,sea_water_temperature,qcFlag
BP,ioos:station:wmo:42369:2,2022-01-01T00:19:00Z,27.2029,-90.2721,499.2,9.5,11113222
BP,ioos:station:wmo:42369:2,2022-01-01T00:39:00Z,27.2029,-90.2722,499.0,9.6,11113222
BP,ioos:station:wmo:42369:2,2022-01-01T00:59:00Z,27.2029,-90.2722,499.2,9.5,11113222
BP,ioos:station:wmo:42369:2,2022-01-01T01:19:00Z,27.2029,-90.2722,498.8,9.6,11113222
BP,ioos:station:wmo:42369:2,2022-01-01T01:39:00Z,27.2029,-90.2722,497.1,9.6,11113222
BP,ioos:station:wmo:42369:2,2022-01-01T01:59:00Z,27.2028,-90.2720,495.5,9.6,11113222
BP,ioos:station:wmo:42369:2,2022-01-01T02:19:00Z,27.2028,-90.2720,494.1,9.6,11113222
BP,ioos:station:wmo:42369:2,2022-01-01T02:39:00Z,27.2029,-90.2721,491.5,9.6,11113222
BP,ioos:station:wmo:42369:2,2022-01-01T02:59:00Z,27.2029,-90.2721,490.1,9.7,11113222
BP,ioos:station:wmo:42369:2,2022-01-01T03:19:00Z,27.2029,-90.2722,488.5,9.8,11113222
BP,ioos:station:wmo:42369:2,2022-01-01T03:39:00Z,27.2029,-90.2722,487.4,9.8,11113222
BP,ioos:station:wmo:42369:2,2022-01-01T03:59:00Z,27.2029,-90.2722,486.9,9.9,11113222
BP,ioos:station:wmo:42369:2,2022-01-01T04:19:00Z,27.2029,-90.2722,484.4,9.9,11113222
BP,ioos:station:wmo:42369:2,2022-01-01T04:39:00Z,27.2029,-90.2723,484.7,9.9,11113222
BP,ioos:station:wmo:42369:2,2022-01-01T04:59:00Z,27.2029,-90.2723,483.9,9.8,11113222
BP,ioos:station:wmo:42369:2,2022-01-01T05:19:00Z,27.2029,-90.2723,483.7,9.8,11113222
BP,ioos:station:wmo:42369:2,2022-01-01T05:39:00Z,27.2028,-90.2723,483.7,9.9,11113222
BP,ioos:station:wmo:42369:2,2022-01-01T05:59:00Z,27.2028,-90.2723,484.9,10.0,11113222
BP,ioos:station:wmo:42369:2,2022-01-01T06:19:00Z,27.2026,-90.2724,485.0,9.9,11113222
BP,ioos:station:wmo:42369:2,2022-01-01T06:39:00Z,27.2027,-90.2723,485.2,9.9,11113222
BP,ioos:station:wmo:42369:2,2022-01-01T06:59:00Z,27.2027,-90.2723,487.4,9.9,11113222
BP,ioos:station:wmo:42369:2,2022-01-01T07:19:00Z,27.2027,-90.2723,488.8,9.9,11113222
BP,ioos:station:wmo:42369:2,2022-01-01T07:39:00Z,27.2027,-90.2722,490.4,9.9,11113222
BP,ioos:station:wmo:42369:2,2022-01-01T07:59:00Z,27.2025,-90.2722,490.4,9.9,11113222
BP,ioos:station:wmo:42369:2,2022-01-01T08:19:00Z,27.2025,-90.2722,491.4,9.9,11113222
BP,ioos:station:wmo:42369:2,2022-01-01T08:39:00Z,27.2025,-90.2722,491.9,9.9,11113222
BP,ioos:station:wmo:42369:2,2022-01-01T08:59:00Z,27.2027,-90.2721,493.0,9.8,11113222
BP,ioos:station:wmo:42369:2,2022-01-01T09:19:00Z,27.2029,-90.2720,494.6,9.9,11113222
BP,ioos:station:wmo:42369:2,2022-01-01T09:39:00Z,27.2028,-90.2720,493.9,10.0,11111222
BP,ioos:station:wmo:42369:2,2022-01-01T09:59:00Z,27.2028,-90.2720,493.7,10.0,11113222
BP,ioos:station:wmo:42369:2,2022-01-01T10:19:00Z,27.2026,-90.2720,495.5,10.0,11113222
BP,ioos:station:wmo:42369:2,2022-01-01T10:39:00Z,27.2026,-90.2720,496.1,10.0,11113222
BP,ioos:station:wmo:42369:2,2022-01-01T10:59:00Z,27.2025,-90.2721,496.6,10.0,11113222
BP,ioos:station:wmo:42369:2,2022-01-01T11:19:00Z,27.2025,-90.2721,496.5,9.9,11113222
BP,ioos:station:wmo:42369:2,2022-01-01T11:39:00Z,27.2025,-90.2721,496.6,9.8,11113222
BP,ioos:station:wmo:42369:2,2022-01-01T11:59:00Z,27.2025,-90.2720,497.4,9.8,11113222
BP,ioos:station:wmo:42369:2,2022-01-01T12:19:00Z,27.2026,-90.2720,497.5,9.8,11113222
BP,ioos:station:wmo:42369:2,2022-01-01T12:39:00Z,27.2027,-90.2720,496.8,9.8,11113222
BP,ioos:station:wmo:42369:2,2022-01-01T12:59:00Z,27.2028,-90.2720,493.4,9.9,11113222
BP,ioos:station:wmo:42369:2,2022-01-01T13:19:00Z,27.2029,-90.2721,489.7,10.0,11111222
BP,ioos:station:wmo:42369:2,2022-01-01T13:39:00Z,27.2030,-90.2721,486.2,10.0,11111222
BP,ioos:station:wmo:42369:2,2022-01-01T13:59:00Z,27.2030,-90.2722,484.5,10.0,11111222
BP,ioos:station:wmo:42369:2,2022-01-01T14:19:00Z,27.2030,-90.2722,484.1,10.0,11111222
BP,ioos:station:wmo:42369:2,2022-01-01T14:39:00Z,27.2031,-90.2723,481.5,10.1,11111222
BP,ioos:station:wmo:42369:2,2022-01-01T14:59:00Z,27.2030,-90.2724,479.2,10.1,11111222
BP,ioos:station:wmo:42369:2,2022-01-01T15:19:00Z,27.2029,-90.2725,478.9,10.1,11111222
BP,ioos:station:wmo:42369:2,2022-01-01T15:39:00Z,27.2029,-90.2725,479.1,10.1,11111222
BP,ioos:station:wmo:42369:2,2022-01-01T15:59:00Z,27.2027,-90.2725,480.9,10.0,11111222
BP,ioos:station:wmo:42369:2,2022-01-01T16:19:00Z,27.2026,-90.2725,480.5,10.1,11111222
BP,ioos:station:wmo:42369:2,2022-01-01T16:39:00Z,27.2025,-90.2725,481.7,10.1,11111222
BP,ioos:station:wmo:42369:2,2022-01-01T16:59:00Z,27.2025,-90.2725,482.0,10.0,11111222
BP,ioos:station:wmo:42369:2,2022-01-01T17:19:00Z,27.2024,-90.2726,482.7,10.0,11111222
BP,ioos:station:wmo:42369:2,2022-01-01T17:39:00Z,27.2024,-90.2726,483.0,10.1,11111222
BP,ioos:station:wmo:42369:2,2022-01-01T17:59:00Z,27.2024,-90.2726,483.1,10.1,11111222
BP,ioos:station:wmo:42369:2,2022-01-01T18:19:00Z,27.2024,-90.2725,484.6,10.0,11111222
BP,ioos:station:wmo:42369:2,2022-01-01T18:39:00Z,27.2024,-90.2724,488.0,10.0,11113222
BP,ioos:station:wmo:42369:2,2022-01-01T18:59:00Z,27.2025,-90.2723,489.3,10.0,11113222
BP,ioos:station:wmo:42369:2,2022-01-01T19:19:00Z,27.2025,-90.2723,491.4,9.9,11113222
BP,ioos:station:wmo:42369:2,2022-01-01T19:39:00Z,27.2025,-90.2722,494.2,9.8,11113222
BP,ioos:station:wmo:42369:2,2022-01-01T19:59:00Z,27.2026,-90.2721,495.3,9.8,11113222
BP,ioos:station:wmo:42369:2,2022-01-01T20:19:00Z,27.2026,-90.2720,496.9,9.8,11113222
BP,ioos:station:wmo:42369:2,2022-01-01T20:39:00Z,27.2026,-90.2720,497.0,9.8,11113222
BP,ioos:station:wmo:42369:2,2022-01-01T20:59:00Z,27.2025,-90.2721,496.5,9.8,11113222
BP,ioos:station:wmo:42369:2,2022-01-01T21:19:00Z,27.2026,-90.2721,496.3,9.8,11113222
BP,ioos:station:wmo:42369:2,2022-01-01T21:39:00Z,27.2026,-90.2721,497.0,9.8,11113222
BP,ioos:station:wmo:42369:2,2022-01-01T21:59:00Z,27.2025,-90.2721,498.1,9.7,11113222
BP,ioos:station:wmo:42369:2,2022-01-01T22:19:00Z,27.2025,-90.2720,502.1,9.7,11113222
BP,ioos:station:wmo:42369:2,2022-01-01T22:59:00Z,27.2026,-90.2717,505.8,9.5,11113222
BP,ioos:station:wmo:42369:2,2022-01-01T23:39:00Z,27.2027,-90.2717,509.2,9.4,11113222
BP,ioos:station:wmo:42369:2,2022-01-01T23:59:00Z,27.2028,-90.2716,511.0,9.4,11113222
BP,ioos:station:wmo:42369:2,2022-01-02T00:19:00Z,27.2028,-90.2716,511.7,9.4,11113222
BP,ioos:station:wmo:42369:2,2022-01-02T00:39:00Z,27.2028,-90.2716,513.5,9.4,11113222
BP,ioos:station:wmo:42369:2,2022-01-02T00:59:00Z,27.2025,-90.2717,513.6,9.4,11113222
BP,ioos:station:wmo:42369:2,2022-01-02T01:19:00Z,27.2026,-90.2717,513.2,9.4,11113222
BP,ioos:station:wmo:42369:2,2022-01-02T01:59:00Z,27.2027,-90.2716,512.5,9.3,11113222
BP,ioos:station:wmo:42369:2,2022-01-02T02:19:00Z,27.2029,-90.2716,513.7,9.3,11113222
BP,ioos:station:wmo:42369:2,2022-01-02T02:39:00Z,27.2027,-90.2716,515.2,9.3,11113222
BP,ioos:station:wmo:42369:2,2022-01-02T02:59:00Z,27.2026,-90.2716,514.5,9.3,11113222
BP,ioos:station:wmo:42369:2,2022-01-02T03:19:00Z,27.2024,-90.2718,514.2,9.3,11113222
BP,ioos:station:wmo:42369:2,2022-01-02T03:39:00Z,27.2020,-90.2720,512.3,9.3,11113222
BP,ioos:station:wmo:42369:2,2022-01-02T03:59:00Z,27.2018,-90.2721,509.7,9.5,11113222
BP,ioos:station:wmo:42369:2,2022-01-02T04:19:00Z,27.2016,-90.2722,510.3,9.5,11113222
BP,ioos:station:wmo:42369:2,2022-01-02T04:39:00Z,27.2016,-90.2722,512.1,9.5,11113222
BP,ioos:station:wmo:42369:2,2022-01-02T04:59:00Z,27.2015,-90.2722,511.6,9.5,11113222
BP,ioos:station:wmo:42369:2,2022-01-02T05:19:00Z,27.2015,-90.2722,513.4,9.5,11113222
BP,ioos:station:wmo:42369:2,2022-01-02T05:39:00Z,27.2015,-90.2722,516.0,9.4,11113222
BP,ioos:station:wmo:42369:2,2022-01-02T05:59:00Z,27.2014,-90.2722,516.7,9.4,11113222
BP,ioos:station:wmo:42369:2,2022-01-02T06:19:00Z,27.2013,-90.2722,519.1,9.4,11113222
BP,ioos:station:wmo:42369:2,2022-01-02T06:39:00Z,27.2012,-90.2723,519.5,9.4,11113222
BP,ioos:station:wmo:42369:2,2022-01-02T06:59:00Z,27.2012,-90.2722,519.0,9.4,11113222
BP,ioos:station:wmo:42369:2,2022-01-02T07:19:00Z,27.2012,-90.2722,517.6,9.5,11113222
BP,ioos:station:wmo:42369:2,2022-01-02T07:39:00Z,27.2014,-90.2723,516.9,9.5,11113222
BP,ioos:station:wmo:42369:2,2022-01-02T07:59:00Z,27.2014,-90.2723,516.5,9.5,11113222
BP,ioos:station:wmo:42369:2,2022-01-02T08:19:00Z,27.2014,-90.2723,517.5,9.6,11113222
BP,ioos:station:wmo:42369:2,2022-01-02T08:39:00Z,27.2014,-90.2723,517.1,9.6,11113222
BP,ioos:station:wmo:42369:2,2022-01-02T08:59:00Z,27.2012,-90.2723,516.7,9.6,11113222
BP,ioos:station:wmo:42369:2,2022-01-02T09:19:00Z,27.2012,-90.2723,517.7,9.6,11113222
BP,ioos:station:wmo:42369:2,2022-01-02T09:39:00Z,27.2012,-90.2722,520.8,9.5,11113222
BP,ioos:station:wmo:42369:2,2022-01-02T09:59:00Z,27.2013,-90.2722,521.4,9.5,11113222
BP,ioos:station:wmo:42369:2,2022-01-02T10:19:00Z,27.2014,-90.2723,519.2,9.6,11113222
BP,ioos:station:wmo:42369:2,2022-01-02T10:39:00Z,27.2014,-90.2723,515.4,9.6,11113222
BP,ioos:station:wmo:42369:2,2022-01-02T10:59:00Z,27.2014,-90.2723,511.8,9.7,11113222
BP,ioos:station:wmo:42369:2,2022-01-02T11:19:00Z,27.2014,-90.2723,511.2,9.7,11113222
BP,ioos:station:wmo:42369:2,2022-01-02T11:39:00Z,27.2014,-90.2723,510.4,9.6,11113222
BP,ioos:station:wmo:42369:2,2022-01-02T11:59:00Z,27.2014,-90.2723,510.1,9.6,11113222
BP,ioos:station:wmo:42369:2,2022-01-02T12:19:00Z,27.2014,-90.2723,509.6,9.5,11113222
BP,ioos:station:wmo:42369:2,2022-01-02T12:39:00Z,27.2015,-90.2723,509.4,9.6,11113222
BP,ioos:station:wmo:42369:2,2022-01-02T12:59:00Z,27.2015,-90.2723,509.9,9.5,11113222
BP,ioos:station:wmo:42369:2,2022-01-02T13:19:00Z,27.2015,-90.2723,510.2,9.5,11113222
BP,ioos:station:wmo:42369:2,2022-01-02T13:39:00Z,27.2015,-90.2723,509.2,9.6,11113222
BP,ioos:station:wmo:42369:2,2022-01-02T13:59:00Z,27.2016,-90.2723,509.5,9.7,11113222
BP,ioos:station:wmo:42369:2,2022-01-02T14:19:00Z,27.2016,-90.2723,509.2,9.7,11113222
BP,ioos:station:wmo:42369:2,2022-01-02T14:39:00Z,27.2017,-90.2722,509.5,9.7,11113222
BP,ioos:station:wmo:42369:2,2022-01-02T14:59:00Z,27.2017,-90.2722,509.4,9.7,11113222
BP,ioos:station:wmo:42369:2,2022-01-02T15:19:00Z,27.2018,-90.2722,508.7,9.6,11113222
BP,ioos:station:wmo:42369:2,2022-01-02T15:39:00Z,27.2019,-90.2721,507.8,9.8,11113222
BP,ioos:station:wmo:42369:2,2022-01-02T16:39:00Z,27.2022,-90.2719,509.7,9.6,11113222
BP,ioos:station:wmo:42369:2,2022-01-02T17:19:00Z,27.2025,-90.2717,511.7,9.5,11113222
BP,ioos:station:wmo:42369:2,2022-01-02T17:39:00Z,27.2026,-90.2716,514.8,9.6,11113222
BP,ioos:station:wmo:42369:2,2022-01-02T17:59:00Z,27.2027,-90.2715,515.8,9.5,11113222
BP,ioos:station:wmo:42369:2,2022-01-02T18:19:00Z,27.2027,-90.2715,516.4,9.5,11113222
BP,ioos:station:wmo:42369:2,2022-01-02T18:39:00Z,27.2026,-90.2715,519.2,9.4,11113222
BP,ioos:station:wmo:42369:2,2022-01-02T18:59:00Z,27.2022,-90.2715,526.9,9.2,11113222
BP,ioos:station:wmo:42369:2,2022-01-02T19:39:00Z,27.1994,-90.2732,526.5,9.2,11113222
BP,ioos:station:wmo:42369:2,2022-01-02T19:59:00Z,27.1994,-90.2732,524.2,9.3,11113222
BP,ioos:station:wmo:42369:2,2022-01-02T20:19:00Z,27.1995,-90.2732,522.2,9.3,11113222
BP,ioos:station:wmo:42369:2,2022-01-02T20:39:00Z,27.1995,-90.2732,522.9,9.3,11113222
BP,ioos:station:wmo:42369:2,2022-01-02T22:59:00Z,27.1995,-90.2732,537.2,9.1,11113222
BP,ioos:station:wmo:42369:2,2022-01-02T23:19:00Z,27.1995,-90.2732,539.6,9.0,11113222
BP,ioos:station:wmo:42369:2,2022-01-02T23:39:00Z,27.1995,-90.2732,542.2,9.0,11113222
BP,ioos:station:wmo:42369:2,2022-01-02T23:59:00Z,27.1998,-90.2728,543.3,9.0,11113222
BP,ioos:station:wmo:42369:2,2022-01-03T00:19:00Z,27.1998,-90.2729,544.9,9.1,11113222
BP,ioos:station:wmo:42369:2,2022-01-03T00:39:00Z,27.1997,-90.2729,545.2,9.1,11113222
BP,ioos:station:wmo:42369:2,2022-01-03T00:59:00Z,27.1997,-90.2730,545.3,9.1,11113222
BP,ioos:station:wmo:42369:2,2022-01-03T01:19:00Z,27.1996,-90.2730,546.0,9.1,11113222
BP,ioos:station:wmo:42369:2,2022-01-03T01:39:00Z,27.1995,-90.2731,547.3,9.0,11113222
BP,ioos:station:wmo:42369:2,2022-01-03T01:59:00Z,27.1995,-90.2732,545.0,9.0,11113222
BP,ioos:station:wmo:42369:2,2022-01-03T02:19:00Z,27.1995,-90.2732,542.8,9.0,11113222
BP,ioos:station:wmo:42369:2,2022-01-03T02:39:00Z,27.1995,-90.2732,542.2,9.0,11113222
BP,ioos:station:wmo:42369:2,2022-01-03T02:59:00Z,27.1995,-90.2732,541.8,9.0,11113222
BP,ioos:station:wmo:42369:2,2022-01-03T03:19:00Z,27.1995,-90.2732,541.0,9.0,11113222
BP,ioos:station:wmo:42369:2,2022-01-03T03:39:00Z,27.1995,-90.2732,542.7,9.0,11113222
BP,ioos:station:wmo:42369:2,2022-01-03T04:19:00Z,27.2001,-90.2732,541.2,9.0,11113222
BP,ioos:station:wmo:42369:2,2022-01-03T04:59:00Z,27.2000,-90.2733,541.2,9.0,11113222
BP,ioos:station:wmo:42369:2,2022-01-03T05:19:00Z,27.2000,-90.2734,539.5,9.1,11113222
BP,ioos:station:wmo:42369:2,2022-01-03T05:39:00Z,27.1994,-90.2733,540.8,9.0,11113222
BP,ioos:station:wmo:42369:2,2022-01-03T05:59:00Z,27.1994,-90.2733,540.3,9.0,11113222
BP,ioos:station:wmo:42369:2,2022-01-03T06:19:00Z,27.1994,-90.2733,541.3,9.0,11113222
BP,ioos:station:wmo:42369:2,2022-01-03T06:39:00Z,27.1994,-90.2733,539.9,9.0,11113222
BP,ioos:station:wmo:42369:2,2022-01-03T06:59:00Z,27.1995,-90.2732,538.9,9.1,11113222
BP,ioos:station:wmo:42369:2,2022-01-03T07:19:00Z,27.1996,-90.2731,537.2,9.1,11113222
BP,ioos:station:wmo:42369:2,2022-01-03T07:39:00Z,27.1997,-90.2731,536.7,9.1,11113222
BP,ioos:station:wmo:42369:2,2022-01-03T08:19:00Z,27.1999,-90.2731,531.3,9.3,11113222
BP,ioos:station:wmo:42369:2,2022-01-03T08:39:00Z,27.2000,-90.2730,530.0,9.3,11113222
BP,ioos:station:wmo:42369:2,2022-01-03T08:59:00Z,27.2001,-90.2730,528.5,9.3,11113222
BP,ioos:station:wmo:42369:2,2022-01-03T09:39:00Z,27.2001,-90.2732,523.3,9.4,11113222
BP,ioos:station:wmo:42369:2,2022-01-03T09:59:00Z,27.2001,-90.2733,519.3,9.4,11113222
BP,ioos:station:wmo:42369:2,2022-01-03T10:19:00Z,27.2001,-90.2733,517.1,9.5,11113222
BP,ioos:station:wmo:42369:2,2022-01-03T10:39:00Z,27.1999,-90.2735,514.3,9.5,11113222
BP,ioos:station:wmo:42369:2,2022-01-03T10:59:00Z,27.1998,-90.2736,513.3,9.5,11113222
BP,ioos:station:wmo:42369:2,2022-01-03T11:19:00Z,27.1997,-90.2738,512.9,9.5,11113222
BP,ioos:station:wmo:42369:2,2022-01-03T11:39:00Z,27.1997,-90.2740,510.6,9.6,11113222
BP,ioos:station:wmo:42369:2,2022-01-03T12:19:00Z,27.1997,-90.2741,505.6,9.6,11113222
BP,ioos:station:wmo:42369:2,2022-01-03T12:39:00Z,27.1998,-90.2742,502.5,9.7,11113222
BP,ioos:station:wmo:42369:2,2022-01-03T12:59:00Z,27.1998,-90.2742,499.4,9.8,11113222
BP,ioos:station:wmo:42369:2,2022-01-03T13:19:00Z,27.1998,-90.2741,497.6,9.9,11113222
BP,ioos:station:wmo:42369:2,2022-01-03T13:59:00Z,27.1998,-90.2741,493.1,9.9,11113222
BP,ioos:station:wmo:42369:2,2022-01-03T14:59:00Z,27.2000,-90.2741,490.5,10.1,11111222
BP,ioos:station:wmo:42369:2,2022-01-03T15:19:00Z,27.2000,-90.2740,490.4,10.1,11111222
BP,ioos:station:wmo:42369:2,2022-01-03T15:39:00Z,27.2001,-90.2740,490.3,10.0,11113222
BP,ioos:station:wmo:42369:2,2022-01-03T15:59:00Z,27.2001,-90.2739,491.1,9.9,11113222
BP,ioos:station:wmo:42369:2,2022-01-03T16:19:00Z,27.2001,-90.2739,491.0,10.0,11111222
BP,ioos:station:wmo:42369:2,2022-01-03T16:59:00Z,27.2003,-90.2736,493.2,10.0,11111222
BP,ioos:station:wmo:42369:2,2022-01-03T17:19:00Z,27.2003,-90.2737,494.5,10.0,11113222
BP,ioos:station:wmo:42369:2,2022-01-03T17:39:00Z,27.2003,-90.2736,495.3,10.0,11111222
BP,ioos:station:wmo:42369:2,2022-01-03T17:59:00Z,27.2003,-90.2735,496.0,10.0,11113222
BP,ioos:station:wmo:42369:2,2022-01-03T18:19:00Z,27.2004,-90.2734,499.1,9.9,11113222
BP,ioos:station:wmo:42369:2,2022-01-03T18:39:00Z,27.2005,-90.2733,499.3,9.9,11113222
BP,ioos:station:wmo:42369:2,2022-01-03T18:59:00Z,27.2006,-90.2732,499.5,9.9,11113222
BP,ioos:station:wmo:42369:2,2022-01-03T19:19:00Z,27.2007,-90.2732,499.7,9.9,11113222
BP,ioos:station:wmo:42369:2,2022-01-03T19:39:00Z,27.2007,-90.2731,502.0,9.7,11113222
BP,ioos:station:wmo:42369:2,2022-01-03T19:59:00Z,27.2007,-90.2730,504.9,9.7,11113222
BP,ioos:station:wmo:42369:2,2022-01-03T20:19:00Z,27.2007,-90.2729,506.5,9.7,11113222
BP,ioos:station:wmo:42369:2,2022-01-03T20:39:00Z,27.2008,-90.2729,509.0,9.7,11113222
BP,ioos:station:wmo:42369:2,2022-01-03T20:59:00Z,27.2008,-90.2728,510.2,9.7,11113222
BP,ioos:station:wmo:42369:2,2022-01-03T21:19:00Z,27.2008,-90.2728,512.4,9.7,11113222
BP,ioos:station:wmo:42369:2,2022-01-03T21:39:00Z,27.2008,-90.2727,515.0,9.6,11113222
BP,ioos:station:wmo:42369:2,2022-01-03T21:59:00Z,27.2008,-90.2727,514.5,9.6,11113222
BP,ioos:station:wmo:42369:2,2022-01-03T22:19:00Z,27.2008,-90.2727,513.6,9.6,11113222
BP,ioos:station:wmo:42369:2,2022-01-03T22:39:00Z,27.2008,-90.2727,515.3,9.6,11113222
BP,ioos:station:wmo:42369:2,2022-01-03T22:59:00Z,27.2007,-90.2727,519.3,9.6,11113222
BP,ioos:station:wmo:42369:2,2022-01-03T23:39:00Z,27.2005,-90.2728,522.6,9.5,11113222
BP,ioos:station:wmo:42369:2,2022-01-03T23:59:00Z,27.2004,-90.2728,525.0,9.5,11113222
BP,ioos:station:wmo:42369:2,2022-01-04T00:19:00Z,27.2003,-90.2729,523.7,9.5,11113222
BP,ioos:station:wmo:42369:2,2022-01-04T00:39:00Z,27.2002,-90.2730,526.5,9.4,11113222
BP,ioos:station:wmo:42369:2,2022-01-04T00:59:00Z,27.2001,-90.2730,530.5,9.3,11113222
BP,ioos:station:wmo:42369:2,2022-01-04T01:19:00Z,27.2001,-90.2730,530.4,9.4,11113222
BP,ioos:station:wmo:42369:2,2022-01-04T01:39:00Z,27.2000,-90.2731,529.7,9.4,11113222
BP,ioos:station:wmo:42369:2,2022-01-04T01:59:00Z,27.2000,-90.2731,529.9,9.4,11113222
BP,ioos:station:wmo:42369:2,2022-01-04T02:19:00Z,27.1999,-90.2732,529.6,9.4,11113222
BP,ioos:station:wmo:42369:2,2022-01-04T02:39:00Z,27.1998,-90.2732,531.1,9.4,11113222
BP,ioos:station:wmo:42369:2,2022-01-04T02:59:00Z,27.1998,-90.2732,531.4,9.3,11113222
BP,ioos:station:wmo:42369:2,2022-01-04T03:19:00Z,27.1997,-90.2733,532.5,9.3,11113222
BP,ioos:station:wmo:42369:2,2022-01-04T03:39:00Z,27.1997,-90.2733,533.0,9.3,11113222
BP,ioos:station:wmo:42369:2,2022-01-04T03:59:00Z,27.1997,-90.2733,531.4,9.2,11113222
BP,ioos:station:wmo:42369:2,2022-01-04T04:19:00Z,27.1997,-90.2733,531.7,9.2,11113222
BP,ioos:station:wmo:42369:2,2022-01-04T04:39:00Z,27.1997,-90.2733,532.6,9.3,11113222
BP,ioos:station:wmo:42369:2,2022-01-04T04:59:00Z,27.1996,-90.2733,532.2,9.3,11113222
BP,ioos:station:wmo:42369:2,2022-01-04T05:39:00Z,27.1995,-90.2734,531.9,9.2,11113222
BP,ioos:station:wmo:42369:2,2022-01-04T05:59:00Z,27.1995,-90.2734,533.1,9.2,11113222
BP,ioos:station:wmo:42369:2,2022-01-04T06:19:00Z,27.1995,-90.2733,535.7,9.1,11113222
BP,ioos:station:wmo:42369:2,2022-01-04T06:39:00Z,27.1995,-90.2733,529.8,9.3,11113222
BP,ioos:station:wmo:42369:2,2022-01-04T06:59:00Z,27.1995,-90.2734,528.9,9.4,11113222
BP,ioos:station:wmo:42369:2,2022-01-04T07:19:00Z,27.1996,-90.2734,532.1,9.3,11113222
BP,ioos:station:wmo:42369:2,2022-01-04T07:39:00Z,27.1996,-90.2734,529.9,9.3,11113222
BP,ioos:station:wmo:42369:2,2022-01-04T07:59:00Z,27.1998,-90.2733,527.3,9.3,11113222
BP,ioos:station:wmo:42369:2,2022-01-04T08:19:00Z,27.1997,-90.2733,526.3,9.4,11113222
BP,ioos:station:wmo:42369:2,2022-01-04T08:39:00Z,27.1998,-90.2733,525.7,9.5,11113222
BP,ioos:station:wmo:42369:2,2022-01-04T08:59:00Z,27.1999,-90.2732,524.7,9.5,11113222
BP,ioos:station:wmo:42369:2,2022-01-04T09:59:00Z,27.2000,-90.2731,523.9,9.4,11113222
BP,ioos:station:wmo:42369:2,2022-01-04T10:19:00Z,27.2000,-90.2731,523.7,9.4,11113222
BP,ioos:station:wmo:42369:2,2022-01-04T10:39:00Z,27.1999,-90.2733,523.1,9.4,11113222
BP,ioos:station:wmo:42369:2,2022-01-04T10:59:00Z,27.1999,-90.2733,524.1,9.4,11113222
BP,ioos:station:wmo:42369:2,2022-01-04T11:19:00Z,27.1999,-90.2734,523.0,9.4,11113222
BP,ioos:station:wmo:42369:2,2022-01-04T11:39:00Z,27.2000,-90.2734,524.3,9.4,11113222
BP,ioos:station:wmo:42369:2,2022-01-04T11:59:00Z,27.2000,-90.2731,524.4,9.5,11113222
BP,ioos:station:wmo:42369:2,2022-01-04T12:19:00Z,27.2000,-90.2731,524.4,9.5,11113222
BP,ioos:station:wmo:42369:2,2022-01-04T12:39:00Z,27.2000,-90.2731,524.0,9.5,11113222
BP,ioos:station:wmo:42369:2,2022-01-04T13:19:00Z,27.2000,-90.2731,522.3,9.4,11113222
BP,ioos:station:wmo:42369:2,2022-01-04T13:39:00Z,27.1999,-90.2733,518.6,9.5,11113222
BP,ioos:station:wmo:42369:2,2022-01-04T13:59:00Z,27.1999,-90.2733,517.6,9.6,11113222
BP,ioos:station:wmo:42369:2,2022-01-04T14:19:00Z,27.2000,-90.2734,515.6,9.6,11113222
BP,ioos:station:wmo:42369:2,2022-01-04T14:39:00Z,27.2000,-90.2734,513.4,9.6,11113222
BP,ioos:station:wmo:42369:2,2022-01-04T14:59:00Z,27.2000,-90.2735,512.0,9.6,11113222
BP,ioos:station:wmo:42369:2,2022-01-04T15:19:00Z,27.2000,-90.2735,511.3,9.6,11113222
BP,ioos:station:wmo:42369:2,2022-01-04T15:39:00Z,27.2000,-90.2735,510.5,9.7,11113222
BP,ioos:station:wmo:42369:2,2022-01-04T15:59:00Z,27.2001,-90.2735,508.9,9.6,11113222
BP,ioos:station:wmo:42369:2,2022-01-04T16:19:00Z,27.2001,-90.2735,507.2,9.7,11113222
BP,ioos:station:wmo:42369:2,2022-01-04T18:59:00Z,27.2000,-90.2735,502.1,9.8,11113222
BP,ioos:station:wmo:42369:2,2022-01-04T19:19:00Z,27.2000,-90.2735,501.0,9.9,11113222
BP,ioos:station:wmo:42369:2,2022-01-04T19:59:00Z,27.2002,-90.2733,504.4,9.8,11113222
BP,ioos:station:wmo:42369:2,2022-01-04T20:19:00Z,27.2002,-90.2733,507.6,9.8,11113222
BP,ioos:station:wmo:42369:2,2022-01-04T20:39:00Z,27.2002,-90.2733,508.8,9.8,11113222
BP,ioos:station:wmo:42369:2,2022-01-04T20:59:00Z,27.2001,-90.2735,509.1,9.9,11113222
BP,ioos:station:wmo:42369:2,2022-01-04T21:19:00Z,27.2000,-90.2735,509.0,9.8,11113222
BP,ioos:station:wmo:42369:2,2022-01-04T21:39:00Z,27.2000,-90.2735,509.1,9.8,11113222
BP,ioos:station:wmo:42369:2,2022-01-04T21:59:00Z,27.2000,-90.2735,509.4,9.8,11113222
BP,ioos:station:wmo:42369:2,2022-01-04T22:19:00Z,27.2002,-90.2734,509.5,9.8,11113222
BP,ioos:station:wmo:42369:2,2022-01-05T00:19:00Z,27.2000,-90.2736,513.1,9.9,11113222
BP,ioos:station:wmo:42369:2,2022-01-05T00:39:00Z,27.2000,-90.2736,513.7,9.9,11113222
BP,ioos:station:wmo:42369:2,2022-01-05T00:59:00Z,27.2001,-90.2733,515.3,9.9,11113222
BP,ioos:station:wmo:42369:2,2022-01-05T01:19:00Z,27.2002,-90.2733,515.3,9.9,11113222
BP,ioos:station:wmo:42369:2,2022-01-05T01:39:00Z,27.2002,-90.2733,514.3,9.9,11113222
BP,ioos:station:wmo:42369:2,2022-01-05T01:59:00Z,27.2001,-90.2733,512.9,9.9,11113222
BP,ioos:station:wmo:42369:2,2022-01-05T02:19:00Z,27.2002,-90.2733,512.8,9.8,11113222
BP,ioos:station:wmo:42369:2,2022-01-05T02:39:00Z,27.2002,-90.2733,512.0,9.9,11113222
BP,ioos:station:wmo:42369:2,2022-01-05T02:59:00Z,27.2002,-90.2734,510.9,9.9,11113222
BP,ioos:station:wmo:42369:2,2022-01-05T03:19:00Z,27.2002,-90.2734,509.3,9.8,11113222
BP,ioos:station:wmo:42369:2,2022-01-05T03:39:00Z,27.2002,-90.2734,507.9,9.8,11113222
BP,ioos:station:wmo:42369:2,2022-01-05T04:19:00Z,27.2001,-90.2736,509.2,9.8,11113222
BP,ioos:station:wmo:42369:2,2022-01-05T04:39:00Z,27.2000,-90.2736,509.0,9.8,11113222
BP,ioos:station:wmo:42369:2,2022-01-05T04:59:00Z,27.2000,-90.2736,508.3,9.8,11113222
BP,ioos:station:wmo:42369:2,2022-01-05T05:19:00Z,27.2000,-90.2736,507.6,9.7,11113222
BP,ioos:station:wmo:42369:2,2022-01-05T05:39:00Z,27.2001,-90.2735,508.6,9.7,11113222
BP,ioos:station:wmo:42369:2,2022-01-05T05:59:00Z,27.2001,-90.2736,509.0,9.7,11113222
BP,ioos:station:wmo:42369:2,2022-01-05T06:19:00Z,27.2001,-90.2736,508.8,9.7,11113222
BP,ioos:station:wmo:42369:2,2022-01-05T06:39:00Z,27.2001,-90.2736,509.8,9.7,11113222
BP,ioos:station:wmo:42369:2,2022-01-05T06:59:00Z,27.2000,-90.2736,509.5,9.7,11113222
BP,ioos:station:wmo:42369:2,2022-01-05T07:19:00Z,27.2000,-90.2736,509.0,9.7,11113222
BP,ioos:station:wmo:42369:2,2022-01-05T07:39:00Z,27.2000,-90.2736,507.2,9.7,11113222
BP,ioos:station:wmo:42369:2,2022-01-05T07:59:00Z,27.2000,-90.2736,505.9,9.8,11113222
BP,ioos:station:wmo:42369:2,2022-01-05T08:39:00Z,27.2000,-90.2736,506.6,9.8,11113222
BP,ioos:station:wmo:42369:2,2022-01-05T08:59:00Z,27.2001,-90.2736,505.9,9.9,11113222
BP,ioos:station:wmo:42369:2,2022-01-05T09:19:00Z,27.2000,-90.2736,506.7,9.8,11113222
BP,ioos:station:wmo:42369:2,2022-01-05T09:39:00Z,27.2001,-90.2736,507.4,9.8,11113222
BP,ioos:station:wmo:42369:2,2022-01-05T09:59:00Z,27.2001,-90.2736,506.7,9.7,11113222
BP,ioos:station:wmo:42369:2,2022-01-05T10:19:00Z,27.2001,-90.2736,505.7,9.8,11113222